Regional Weather Roundup
Issued by NWS

Home | Current Version | Previous Version | Text Only | Print | Product List | Glossary On
Versions: 1 2 3 4 5 6 7 8 9 10 11 12 13 14 15 16 17 18 19 20 21 22 23 24 25 26 27 28 29 30 31 32 33 34 35 36 37 38 39 40 41 42 43 44 45 46 47 48 49 50
000
ASUS45 KABQ 051610
RWRNM
WEATHER ROUNDUP FOR NEW MEXICO
NATIONAL WEATHER SERVICE ALBUQUERQUE NM
1000 AM MDT TUE MAY 05 2015

NOTE: "FAIR" MEANS FEW OR NO CLOUDS BELOW 12,000 FEET AGL WITH NO
       SIGNIFICANT WEATHER OR OBSTRUCTIONS TO VISION.

      THIS PRODUCT IS RELEASED AS TWO VERSIONS.  ONE VERSION NEAR
      THE TOP OF THE HOUR CONTAINING PRELIMINARY DATA FROM ALBUQUERQUE
      AND OTHER STATIONS.  A FINAL VERSION WITH ADDITIONAL DATA IS
      ISSUED ABOUT 10 MINUTES AFTER THE HOUR.

NMZ501-503-504-510>518-051700-
NORTHWEST PLATEAU/NORTHCENTRAL MOUNTAINS

CITY           SKY/WX    TMP DP  RH WIND       PRES   REMARKS
FARMINGTON     LGT RAIN  49  44  83 N6        29.93R
LOS ALAMOS     LGT RAIN  44  43  99 W7        29.99S
SANTA FE       PTSUNNY   53  43  68 SE8       29.95F THUNDER
TAOS           CLOUDY    45  36  70 SW3       29.98F
ANGEL FIRE     CLOUDY    37  35  92 CALM      29.99S

$$
NMZ402-403-502-505>509-051700-
WESTCENTRAL MOUNTAINS/SOUTHWEST MOUNTAINS

CITY           SKY/WX    TMP DP  RH WIND       PRES   REMARKS
GALLUP         CLOUDY    47  42  83 SW10      29.99S
GRANTS         CLOUDY    48  39  71 CALM      30.00S
SILVER CITY      N/A     57  37  47 W8G18     30.04S

$$
NMZ407-409-411-412-051700-
SOUTHERN DESERTS

CITY           SKY/WX    TMP DP  RH WIND       PRES   REMARKS
LORDSBURG      FAIR      61  41  48 NW7       30.01R
DEMING         SUNNY     64  41  42 W12G20    30.00S
LAS CRUCES     SUNNY     65  38  36 W16G24    30.00S
ALAMOGORDO     MOSUNNY   63  54  72 S13       29.97S
T OR C         MOSUNNY   63  37  38 SW12      29.96S

$$
NMZ519>523-051700-
CENTRAL VALLEYS/CENTRAL HIGHLANDS

CITY           SKY/WX    TMP DP  RH WIND       PRES   REMARKS
ALBUQUERQUE    MOSUNNY   57  42  57 SW12      29.96R
DOUBLE EAGLE   PTSUNNY   55  43  62 SW14      29.97R
MORIARTY ARPT  FAIR      55  45  68 S10       29.97F
CLINES CORNERS PTSUNNY   52  41  66 W10       29.97S
BELEN          FAIR      59  42  52 SW10      29.96S
SOCORRO        FAIR      57  47  69 SE5       29.96S

$$
NMZ524>526-539-540-051700-
SOUTHCENTRAL MOUNTAINS

CITY           SKY/WX    TMP DP  RH WIND       PRES   REMARKS
RUIDOSO        MOSUNNY   55  41  58 S7        30.02F

$$
NMZ527>531-051700-
NORTHEAST HIGHLANDS/NORTHEAST PLAINS

CITY           SKY/WX    TMP DP  RH WIND       PRES   REMARKS
LAS VEGAS      CLOUDY    49  42  77 SW8       29.97S
RATON          CLOUDY    51  45  79 NW5       29.92F
CLAYTON        LGT RAIN  54  51  90 E10       29.89F

$$
NMZ532>537-051700-
EASTCENTRAL PLAINS

CITY           SKY/WX    TMP DP  RH WIND       PRES   REMARKS
TUCUMCARI      CLOUDY    59  53  80 SW6       29.89R
CANNON AFB     PTSUNNY   59  54  82 W16       29.91S
CLOVIS AIRPORT PTSUNNY   61  52  72 MISG        N/A

$$
NMZ028-029-538-051700-
SOUTHEAST PLAINS

CITY           SKY/WX    TMP DP  RH WIND       PRES   REMARKS
ROSWELL        SUNNY     66  54  65 VRB6      29.90F
ARTESIA        SUNNY     66  55  68 S6        29.93S
CARLSBAD       SUNNY     69  53  56 VRB3      29.91S
HOBBS          PTSUNNY   61  59  94 VRB3      29.95S


$$


USA.gov is the U.S. government's official web portal to all federal, state and local government web resources and services.